Home   Weather   Hammond   Past weeks
Flag for USA

Past Weather in Hammond, Indiana, USA — Yesterday and Last 2 Weeks

Now
21 °F

Clear.


Feels Like: 10 °F
Forecast: 27 / 16 °F
Wind: 10 mph from West

Location: Gary Regional

Current Time: Dec 10, 2019 at 7:52:14 pm

Latest Report: Dec 10, 2019 at 6:45 pm


Visibility: 10 mi

Pressure: 30.31 "Hg

Humidity: 42%

Dew Point: 1 °F

Location of HammondLocation

Past Weather in Hammond — Graph

°F

Hammond Temperature Yesterday

Maximum temperature yesterday: 51 °F (at 12:15 am)
Minimum temperature yesterday: 28 °F (at 11:55 pm)
Average temperature yesterday: 44 °F

High & Low Weather Summary for the Past Weeks

 TemperatureHumidityPressure
High58 °F (Nov 27, 1:35 am)100% (Nov 26, 4:15 am)30.50 "Hg (Nov 26, 4:15 am)
Low18 °F (Dec 10, 7:45 am)36% (Dec 10, 3:45 pm)29.29 "Hg (Nov 27, 4:15 am)
Average38 °F76%29.93 "Hg
* Reported Nov 25 5:45 pm — Dec 10 5:45 pm, Hammond. Weather by CustomWeather, © 2019

Note: Actual official high and low records may vary slightly from our data, if they occured in-between our weather recording intervals... More about our weather records

Hammond Weather History for the Previous 24 Hours

Scroll right to see more
 ConditionsComfort  
Time TempWeatherWind HumidityBarometerVisibility
5:45 pm
Tue, Dec 10
23 °FClear.17 mph39%30.30 "Hg10 mi
4:45 pm23 °FClear.15 mph39%30.27 "Hg10 mi
3:45 pm25 °FClear.10 mph36%30.24 "Hg15 mi
2:45 pm25 °FSunny.10 mph39%30.21 "Hg10 mi
1:45 pm25 °FPassing clouds.12 mph39%30.20 "Hg10 mi
12:45 pm25 °FPassing clouds.9 mph39%30.19 "Hg10 mi
11:45 am23 °FPassing clouds.12 mph46%30.18 "Hg10 mi
10:45 am19 °FScattered clouds.12 mph58%30.17 "Hg10 mi
9:45 am19 °FBroken clouds.15 mph100%30.16 "Hg10 mi
8:45 am18 °FBroken clouds.14 mph100%30.13 "Hg10 mi
7:45 am18 °FPartly sunny.12 mph73%30.08 "Hg10 mi
6:45 am19 °FPartly sunny.18 mph73%30.05 "Hg10 mi
5:45 am21 °FLight snow. Overcast.18 mph68%30.02 "Hg10 mi
4:45 am23 °FLight snow. Overcast.17 mph68%29.99 "Hg10 mi
4:15 am23 °FOvercast.13 mph70%29.98 "Hg10 mi
3:55 am24 °FOvercast.16 mph70%29.97 "Hg10 mi
3:35 am24 °FOvercast.15 mph68%29.97 "Hg10 mi
3:15 am24 °FOvercast.16 mph70%29.95 "Hg10 mi
2:55 am24 °FOvercast.12 mph70%29.93 "Hg10 mi
2:35 am25 °FOvercast.10 mph70%29.93 "Hg10 mi
2:15 am25 °FLight snow. Overcast.12 mph71%29.92 "Hg10 mi
1:55 am26 °FOvercast.14 mph69%29.90 "Hg10 mi
1:35 am26 °FOvercast.17 mph67%29.90 "Hg10 mi
1:15 am26 °FOvercast.17 mph68%29.89 "Hg10 mi
12:55 am26 °FOvercast.23 mph68%29.87 "Hg10 mi
12:35 am27 °FOvercast.17 mph68%29.87 "Hg10 mi
12:15 am27 °FOvercast.16 mph69%29.85 "Hg10 mi
11:55 pm
Mon, Dec 9
28 °FOvercast.17 mph70%29.85 "Hg10 mi
11:35 pm28 °FOvercast.20 mph69%29.84 "Hg10 mi
11:15 pm28 °FOvercast.14 mph71%29.83 "Hg10 mi
10:55 pm29 °FOvercast.15 mph71%29.82 "Hg10 mi
10:35 pm29 °FOvercast.16 mph72%29.81 "Hg10 mi
10:15 pm30 °FOvercast.17 mph72%29.80 "Hg10 mi
9:45 pm30 °FOvercast.22 mph75%29.76 "Hg10 mi
8:45 pm32 °FOvercast.20 mph75%29.72 "Hg10 mi
7:45 pm34 °FOvercast.13 mph75%29.68 "Hg10 mi
Weather by CustomWeather, © 2019

See weather overview

Advertising